Bolton Field, OH

12:23 AM EDT on April 20, 2018 (GMT -0400)
Bolton

Weather History for KTZR - April, 2014

Change the Weather History Date:

Thursday, April 10, 2014

  Actual Average Record
Temperature  
Mean Temperature 54 °F -  
Max Temperature 69 °F 61 °F 82 °F (2011)
Min Temperature 38 °F 41 °F 21 °F (1997)
Degree Days  
Heating Degree Days 12    
Growing Degree Days 4 (Base 50)    
Moisture  
Dew Point 37 °F    
Average Humidity 59    
Maximum Humidity 80    
Minimum Humidity 35    
Precipitation  
Precipitation 0.00 in - - ()
Sea Level Pressure  
Sea Level Pressure 29.98 in    
Wind  
Wind Speed 10 mph (SSW)    
Max Wind Speed 26 mph    
Max Gust Speed 36 mph    
Visibility 10 miles    
Events      
Averages and records for this station are not official NWS values.
T = Trace of Precipitation, MM = Missing Value Source: NWS Daily Summary

Daily Weather History Graph

Daily Weather History Graph

Search for Another Location

Airport or City:

Astronomy

Apr. 10, 2014 Rise Set
Actual Time 7:02 AM EDT 8:05 PM EDT
Civil Twilight 6:34 AM EDT 8:33 PM EDT
Nautical Twilight 6:01 AM EDT 9:06 PM EDT
Astronomical Twilight 5:27 AM EDT 9:41 PM EDT
Moon 3:49 PM EDT (4/10) 4:24 AM EDT (4/10)
Length of Visible Light 13h 58m
Length of Day
13h 03m
Waxing Gibbous, 79% of the Moon is Illuminated
Apr 10
Waxing Gibbous
Apr 15
Full
Apr 22
Last Quarter
Apr 29
New
May 6
First Quarter

Hourly Weather History & Observations

Time (EDT) Temp. Windchill Dew Point Humidity Pressure Visibility Wind Dir Wind Speed Gust Speed Precip Events Conditions
12:15 AM 43.9 °F 39.9 °F 34.3 °F 69% 30.04 in 10.0 mi South 6.9 mph - N/A   Clear
12:35 AM 43.5 °F 39.4 °F 33.8 °F 69% 30.04 in 10.0 mi South 6.9 mph - N/A   Clear
12:55 AM 44.4 °F 40.5 °F 34.2 °F 67% 30.03 in 10.0 mi South 6.9 mph - N/A   Clear
1:15 AM 44.6 °F 40.7 °F 34.0 °F 66% 30.03 in 10.0 mi South 6.9 mph - N/A   Clear
1:35 AM 44.4 °F 40.5 °F 34.0 °F 67% 30.03 in 10.0 mi South 6.9 mph - N/A   Clear
1:55 AM 43.7 °F 39.7 °F 33.8 °F 68% 30.03 in 10.0 mi South 6.9 mph - N/A   Clear
2:15 AM 43.5 °F 39.4 °F 33.4 °F 68% 30.02 in 10.0 mi South 6.9 mph - N/A   Clear
2:35 AM 43.2 °F 39.0 °F 33.4 °F 69% 30.01 in 10.0 mi South 6.9 mph - N/A   Clear
2:55 AM 41.7 °F 38.8 °F 32.9 °F 71% 30.02 in 10.0 mi SSW 4.6 mph - N/A   Clear
3:15 AM 41.2 °F 38.2 °F 32.4 °F 71% 30.03 in 10.0 mi SSW 4.6 mph - N/A   Clear
3:35 AM 41.5 °F 38.6 °F 32.2 °F 69% 30.03 in 10.0 mi South 4.6 mph - N/A   Clear
3:55 AM 41.5 °F 38.6 °F 32.2 °F 69% 30.03 in 10.0 mi SSW 4.6 mph - N/A   Clear
4:15 AM 38.3 °F 34.8 °F 32.0 °F 78% 30.03 in 10.0 mi SSW 4.6 mph - N/A   Clear
4:35 AM 41.0 °F 37.1 °F 32.5 °F 72% 30.03 in 10.0 mi South 5.8 mph - N/A   Clear
4:55 AM 40.8 °F 37.8 °F 32.7 °F 73% 30.03 in 10.0 mi South 4.6 mph - N/A   Clear
5:15 AM 40.5 °F - 32.9 °F 74% 30.03 in 10.0 mi North - - N/A   Clear
5:35 AM 40.5 °F - 33.3 °F 75% 30.03 in 10.0 mi North - - N/A   Clear
5:55 AM 41.0 °F - 33.8 °F 76% 30.03 in 10.0 mi North - - N/A   Clear
6:15 AM 41.2 °F - 33.8 °F 75% 30.03 in 10.0 mi North - - N/A   Clear
6:35 AM 40.5 °F - 33.6 °F 77% 30.04 in 10.0 mi North - - N/A   Clear
6:55 AM 39.2 °F - 33.4 °F 80% 30.04 in 10.0 mi North - - N/A   Clear
7:15 AM 39.7 °F - 33.8 °F 79% 30.05 in 10.0 mi North - - N/A   Clear
7:30 AM 41.0 °F 35.8 °F 33.8 °F 76% 30.05 in 10.0 mi South 8.1 mph - N/A   Clear
7:58 AM 42.8 °F 38.0 °F 35.6 °F 76% 30.05 in 10.0 mi South 8.1 mph - N/A   Clear
8:50 AM 46.4 °F 41.9 °F 37.4 °F 71% 30.05 in 10.0 mi South 9.2 mph - N/A   Clear
9:58 AM 55.4 °F - 37.4 °F 51% 30.03 in 10.0 mi SSW 19.6 mph 28.8 mph N/A   Clear
10:50 AM 57.2 °F - 39.2 °F 51% 30.01 in 10.0 mi South 23.0 mph 28.8 mph N/A   Clear
11:50 AM 62.6 °F - 39.2 °F 42% 30.01 in 10.0 mi SSW 21.9 mph 32.2 mph N/A   Clear
12:50 PM 62.6 °F - 37.4 °F 39% 29.98 in 10.0 mi SSW 23.0 mph 33.4 mph N/A   Clear
1:50 PM 64.4 °F - 39.2 °F 40% 29.94 in 10.0 mi SW 24.2 mph 33.4 mph N/A   Clear
2:55 PM 68.0 °F - 39.2 °F 35% 29.89 in 10.0 mi South 26.5 mph 35.7 mph N/A   Clear
3:47 PM 69.8 °F - 41.0 °F 35% 29.85 in 10.0 mi North - - N/A   Clear
5:47 PM 69.8 °F - 42.8 °F 38% 29.84 in 10.0 mi North - - N/A   Clear
6:47 PM 69.8 °F - 41.0 °F 35% 29.86 in 10.0 mi SSW 25.3 mph 35.7 mph N/A   Clear
7:35 PM 66.4 °F - 42.3 °F 41% 29.87 in 10.0 mi SSW 15.0 mph 25.3 mph N/A   Clear
7:55 PM 64.9 °F - 42.3 °F 44% 29.88 in 10.0 mi SSW 11.5 mph - N/A   Clear
8:15 PM 63.3 °F - 42.3 °F 46% 29.88 in 10.0 mi SSW 9.2 mph - N/A   Clear
8:35 PM 63.7 °F - 42.4 °F 46% 29.89 in 10.0 mi South 10.4 mph - N/A   Clear
8:55 PM 64.0 °F - 42.8 °F 46% 29.89 in 10.0 mi South 13.8 mph 17.3 mph N/A   Scattered Clouds
9:15 PM 63.5 °F - 42.8 °F 47% 29.90 in 10.0 mi South 11.5 mph - N/A   Scattered Clouds
9:35 PM 63.5 °F - 43.0 °F 47% 29.90 in 10.0 mi South 11.5 mph - N/A   Mostly Cloudy
10:15 PM 63.0 °F - 43.0 °F 48% 29.92 in 10.0 mi SSW 15.0 mph - N/A   Mostly Cloudy
10:35 PM 62.8 °F - 43.2 °F 49% 29.91 in 10.0 mi SSW 12.7 mph 19.6 mph N/A   Overcast
10:55 PM 62.2 °F - 43.2 °F 50% 29.91 in 10.0 mi SSW 13.8 mph 18.4 mph N/A   Mostly Cloudy
11:15 PM 62.8 °F - 43.3 °F 49% 29.92 in 10.0 mi SSW 12.7 mph 19.6 mph N/A   Mostly Cloudy
11:35 PM 62.6 °F - 43.7 °F 50% 29.92 in 10.0 mi SW 12.7 mph - N/A   Mostly Cloudy
11:55 PM 61.7 °F - 43.9 °F 52% 29.94 in 10.0 mi SW 10.4 mph - N/A   Overcast